Weather History for Cozumel, Mexico

Change the Weather History Date:

Saturday, September 1, 2012

  Actual Average Record
Temperature  
Mean Temperature 78 °F -  
Max Temperature 86 °F 89 °F 95 °F (2008)
Min Temperature 71 °F 76 °F 69 °F (2010)
Cooling Degree Days 14    
Growing Degree Days 28 (Base 50)    
Moisture  
Dew Point 73 °F    
Average Humidity 83    
Maximum Humidity 94    
Minimum Humidity 62    
Precipitation  
Precipitation 0.00 in - - ()
Sea Level Pressure  
Sea Level Pressure 30.02 in    
Wind  
Wind Speed 6 mph ()    
Max Wind Speed 17 mph    
Max Gust Speed -    
Visibility 7.4 miles    
Events      
Averages and records for this station are not official NWS values.
T = Trace of Precipitation, MM = Missing Value Source: Averaged Metar Reports

Daily Weather History Graph

Daily Weather History Graph

Search for Another Location

Airport:

Trip Planner

Search our weather history database for the weather conditions in past years. The results will help you decide how hot, cold, wet, or windy it might be!

Date:

Astronomy

Sep. 01, 2012 Rise Set
Actual Time 6:31 AM CDT 7:02 PM CDT
Civil Twilight 6:09 AM CDT 7:25 PM CDT
Nautical Twilight 5:43 AM CDT 7:51 PM CDT
Astronomical Twilight 5:16 AM CDT 8:17 PM CDT
Moon 7:40 PM CDT (9/1) 7:22 AM CDT (9/1)
Length of Visible Light 13h 15m
Length of Day
12h 30m
Full, 99% of the Moon is Illuminated
Sep 1
Full
Sep 8
Last Quarter
Sep 15
New
Sep 22
First Quarter
Sep 29
Full

Hourly Weather History & Observations

Time (CDT) Temp. Heat Index Dew Point Humidity Pressure Visibility Wind Dir Wind Speed Gust Speed Precip Events Conditions
12:44 AM 75.2 °F - 73.4 °F 94% 30.01 in 7.0 mi East 4.6 mph - N/A   Scattered Clouds
1:40 AM 75.2 °F - 73.4 °F 94% 30.02 in 7.0 mi East 4.6 mph - N/A   Scattered Clouds
2:43 AM 75.2 °F - 71.6 °F 89% 30.00 in 7.0 mi East 4.6 mph - N/A   Scattered Clouds
3:40 AM 73.4 °F - 71.6 °F 94% 30.02 in 7.0 mi Calm Calm - N/A   Scattered Clouds
4:42 AM 71.6 °F - 69.8 °F 94% 29.99 in 7.0 mi Calm Calm - N/A   Scattered Clouds
5:43 AM 73.4 °F - 71.6 °F 94% 30.00 in 7.0 mi East 4.6 mph - N/A   Mostly Cloudy
6:44 AM 73.4 °F - 71.6 °F 94% 29.98 in 7.0 mi East 4.6 mph - N/A   Mostly Cloudy
7:43 AM 77.0 °F - 73.4 °F 89% 30.02 in 7.0 mi East 4.6 mph - N/A   Mostly Cloudy
8:56 AM 82.4 °F 88.2 °F 73.4 °F 74% 30.04 in 7.0 mi East 10.4 mph - N/A   Mostly Cloudy
9:40 AM 84.2 °F 90.9 °F 73.4 °F 70% 30.07 in 8.0 mi ESE 17.3 mph - N/A   Mostly Cloudy
10:50 AM 82.4 °F 87.2 °F 71.6 °F 70% 30.05 in 8.0 mi East 17.3 mph - N/A   Mostly Cloudy
11:40 AM 86.0 °F 91.8 °F 71.6 °F 62% 30.05 in 8.0 mi ENE 16.1 mph - N/A   Mostly Cloudy
12:43 PM 84.2 °F 90.9 °F 73.4 °F 70% 30.01 in 8.0 mi ENE 15.0 mph - N/A   Mostly Cloudy
1:40 PM 82.4 °F 88.2 °F 73.4 °F 74% 30.03 in 8.0 mi ENE 15.0 mph - N/A   Mostly Cloudy
2:48 PM 86.0 °F 93.4 °F 73.4 °F 66% 30.00 in 8.0 mi NE 13.8 mph - N/A   Mostly Cloudy
3:40 PM 82.4 °F 88.2 °F 73.4 °F 74% 30.02 in 8.0 mi ENE 15.0 mph - N/A   Mostly Cloudy
4:42 PM 84.2 °F 90.9 °F 73.4 °F 70% 29.99 in 8.0 mi ENE 13.8 mph - N/A   Mostly Cloudy
5:41 PM 82.4 °F 88.2 °F 73.4 °F 74% 30.00 in 8.0 mi ENE 9.2 mph - N/A   Mostly Cloudy
6:46 PM 80.6 °F 85.4 °F 73.4 °F 79% 29.97 in 8.0 mi East 5.8 mph - N/A   Scattered Clouds
7:44 PM 77.0 °F - 73.4 °F 89% 30.00 in 7.0 mi East 3.5 mph - N/A   Partly Cloudy
8:43 PM 77.0 °F - 73.4 °F 89% 30.01 in 7.0 mi East 3.5 mph - N/A   Scattered Clouds
9:42 PM 75.2 °F - 73.4 °F 94% 30.06 in 7.0 mi East 3.5 mph - N/A   Partly Cloudy
10:53 PM 75.2 °F - 73.4 °F 94% 30.03 in 7.0 mi East 4.6 mph - N/A   Partly Cloudy
11:44 PM 75.2 °F - 73.4 °F 94% 30.03 in 7.0 mi Calm Calm - N/A   Partly Cloudy